RYR59KB EGSS-LOWW

Flight info

Callsign RYR59KB
Flight time 1h 43m
Altitude 35000
Route CLN M84 KONAN UL607 KOK DCT MATUG DCT GUBAX DCT BARSU DCT EKSOS DCT LULAR DCT RUDAP DCT BUDEX BUDEX2W
Aircraft B738/M-SDFGIJ1LRWYZ/SB1

Departure

Time 2026-05-05 07:26
Airport London Stansted Airport (EGSS)

Arrival

Time 2026-05-05 09:09
Airport Vienna International Airport (LOWW)
Time Latitude Longitude Altitude Speed Heading
2026-05-05 06:52 51.89220 0.25483 356 ft 0 kts 102°
2026-05-05 07:16 51.89222 0.25464 358 ft 4 kts 102°
2026-05-05 07:16 51.89227 0.25426 354 ft 1 kts 102°
2026-05-05 07:17 51.89235 0.25392 357 ft 4 kts 143°
2026-05-05 07:17 51.89251 0.25390 358 ft 3 kts 223°
2026-05-05 07:17 51.89266 0.25412 354 ft 0 kts 223°
2026-05-05 07:20 51.89260 0.25404 358 ft 5 kts 223°
2026-05-05 07:20 51.89211 0.25331 349 ft 13 kts 223°
2026-05-05 07:20 51.89132 0.25211 355 ft 18 kts 223°
2026-05-05 07:21 51.89036 0.25068 352 ft 20 kts 222°
2026-05-05 07:21 51.88931 0.24911 348 ft 21 kts 223°
2026-05-05 07:21 51.88817 0.24738 352 ft 24 kts 223°
2026-05-05 07:21 51.88690 0.24546 348 ft 25 kts 223°
2026-05-05 07:22 51.88566 0.24361 348 ft 23 kts 223°
2026-05-05 07:22 51.88450 0.24187 354 ft 22 kts 223°
2026-05-05 07:22 51.88337 0.24017 351 ft 22 kts 222°
2026-05-05 07:22 51.88227 0.23853 355 ft 21 kts 223°
2026-05-05 07:23 51.88120 0.23693 352 ft 21 kts 222°
2026-05-05 07:23 51.88018 0.23540 350 ft 20 kts 223°
2026-05-05 07:23 51.87917 0.23387 348 ft 19 kts 223°
2026-05-05 07:23 51.87821 0.23243 348 ft 19 kts 223°
2026-05-05 07:24 51.87732 0.23098 351 ft 18 kts 248°
2026-05-05 07:24 51.87790 0.22932 351 ft 17 kts 314°
2026-05-05 07:24 51.87872 0.22789 348 ft 19 kts 313°
2026-05-05 07:24 51.87939 0.22677 349 ft 10 kts 332°
2026-05-05 07:25 51.88001 0.22731 336 ft 13 kts 41°
2026-05-05 07:25 51.88167 0.22979 334 ft 67 kts 43°
2026-05-05 07:25 51.88694 0.23771 336 ft 137 kts 43°
2026-05-05 07:25 51.89457 0.24940 843 ft 155 kts 42°
2026-05-05 07:26 51.90237 0.26141 1854 ft 151 kts 41°
2026-05-05 07:26 51.90983 0.27336 2637 ft 153 kts 49°
2026-05-05 07:26 51.91525 0.28883 3161 ft 163 kts 72°
2026-05-05 07:26 51.91630 0.30737 3749 ft 171 kts 95°
2026-05-05 07:27 51.91267 0.32697 4133 ft 191 kts 111°
2026-05-05 07:27 51.90706 0.34685 4703 ft 196 kts 113°
2026-05-05 07:27 51.90111 0.36760 5020 ft 213 kts 113°
2026-05-05 07:27 51.89474 0.38993 5401 ft 222 kts 112°
2026-05-05 07:28 51.88810 0.41298 5916 ft 229 kts 114°
2026-05-05 07:28 51.88117 0.43655 6551 ft 235 kts 114°
2026-05-05 07:28 51.87381 0.46152 6806 ft 259 kts 114°
2026-05-05 07:28 51.86575 0.48893 7182 ft 276 kts 115°
2026-05-05 07:29 51.85737 0.51741 7808 ft 284 kts 115°
2026-05-05 07:29 51.84893 0.54612 8526 ft 288 kts 115°
2026-05-05 07:29 51.84026 0.57558 9302 ft 292 kts 115°
2026-05-05 07:29 51.83367 0.60677 9789 ft 299 kts 92°
2026-05-05 07:30 51.83396 0.64033 10503 ft 303 kts 88°
2026-05-05 07:30 51.83272 0.71362 11010 ft 347 kts 92°
2026-05-05 07:30 51.83267 0.75323 11601 ft 354 kts 86°
2026-05-05 07:31 51.83444 0.79297 12411 ft 355 kts 85°
2026-05-05 07:31 51.83644 0.83287 13237 ft 358 kts 85°
2026-05-05 07:31 51.83827 0.87327 14008 ft 361 kts 86°
2026-05-05 07:31 51.83994 0.91405 14699 ft 366 kts 86°
2026-05-05 07:32 51.84153 0.95531 15400 ft 371 kts 87°
2026-05-05 07:32 51.84308 0.99720 16105 ft 375 kts 87°
2026-05-05 07:32 51.84462 1.03957 16813 ft 379 kts 87°
2026-05-05 07:32 51.84605 1.08188 17497 ft 384 kts 90°
2026-05-05 07:33 51.84204 1.12460 18141 ft 387 kts 111°
2026-05-05 07:33 51.82892 1.16253 18785 ft 388 kts 130°
2026-05-05 07:33 51.80905 1.19162 19449 ft 386 kts 147°
2026-05-05 07:33 51.78656 1.21557 20095 ft 389 kts 149°
2026-05-05 07:34 51.76360 1.23907 20684 ft 392 kts 149°
2026-05-05 07:34 51.74048 1.26282 21308 ft 395 kts 149°
2026-05-05 07:34 51.71731 1.28704 21916 ft 398 kts 148°
2026-05-05 07:34 51.69409 1.31157 22506 ft 401 kts 148°
2026-05-05 07:35 51.67047 1.33572 23066 ft 403 kts 153°
2026-05-05 07:35 51.64468 1.35352 23614 ft 404 kts 163°
2026-05-05 07:35 51.61732 1.36410 24090 ft 405 kts 173°
2026-05-05 07:35 51.58953 1.36722 24541 ft 407 kts 179°
2026-05-05 07:36 51.56113 1.36819 25010 ft 409 kts 180°
2026-05-05 07:36 51.53255 1.36917 25469 ft 412 kts 180°
2026-05-05 07:36 51.50383 1.37057 25922 ft 414 kts 179°
2026-05-05 07:36 51.47502 1.37242 26366 ft 416 kts 176°
2026-05-05 07:37 51.44665 1.38327 26753 ft 424 kts 159°
2026-05-05 07:37 51.42101 1.40719 27187 ft 431 kts 144°
2026-05-05 07:37 51.40007 1.44212 27595 ft 438 kts 131°
2026-05-05 07:37 51.38141 1.48079 27980 ft 441 kts 130°
2026-05-05 07:38 51.36291 1.52034 28313 ft 445 kts 129°
2026-05-05 07:38 51.34430 1.56015 28667 ft 448 kts 130°
2026-05-05 07:38 51.32548 1.59997 29043 ft 450 kts 130°
2026-05-05 07:38 51.30641 1.63985 29405 ft 452 kts 131°
2026-05-05 07:39 51.28714 1.67975 29759 ft 454 kts 131°
2026-05-05 07:39 51.26774 1.71971 30079 ft 456 kts 131°
2026-05-05 07:39 51.24820 1.75983 30369 ft 458 kts 131°
2026-05-05 07:39 51.22865 1.79994 30734 ft 458 kts 131°
2026-05-05 07:40 51.20917 1.83987 31162 ft 456 kts 131°
2026-05-05 07:40 51.18971 1.87973 31578 ft 454 kts 131°
2026-05-05 07:40 51.17054 1.91891 31932 ft 454 kts 131°
2026-05-05 07:40 51.15171 1.95945 32263 ft 457 kts 125°
2026-05-05 07:41 51.13730 2.00468 32613 ft 461 kts 114°
2026-05-05 07:41 51.12777 2.05352 32999 ft 464 kts 104°
2026-05-05 07:41 51.12350 2.10467 33337 ft 467 kts 97°
2026-05-05 07:41 51.12101 2.15624 33640 ft 468 kts 97°
2026-05-05 07:42 51.11878 2.20789 33949 ft 468 kts 97°
2026-05-05 07:42 51.11644 2.25969 34243 ft 467 kts 97°
2026-05-05 07:42 51.11390 2.31106 34541 ft 466 kts 97°
2026-05-05 07:42 51.11116 2.36256 34811 ft 466 kts 98°
2026-05-05 07:43 51.10831 2.41403 35059 ft 466 kts 98°
2026-05-05 07:43 51.10539 2.46545 35334 ft 466 kts 98°
2026-05-05 07:43 51.10247 2.51682 35613 ft 466 kts 98°
2026-05-05 07:43 51.09957 2.56756 35867 ft 466 kts 98°
2026-05-05 07:44 51.09663 2.61878 36120 ft 465 kts 98°
2026-05-05 07:44 51.09247 2.66974 36363 ft 463 kts 105°
2026-05-05 07:44 51.08492 2.71944 36615 ft 461 kts 107°
2026-05-05 07:44 51.07666 2.76871 36863 ft 461 kts 108°
2026-05-05 07:45 51.05953 2.86758 36933 ft 464 kts 108°
2026-05-05 07:45 51.04267 2.96617 36935 ft 461 kts 108°
2026-05-05 07:46 51.02612 3.06433 36941 ft 459 kts 108°
2026-05-05 07:46 51.00965 3.16213 36938 ft 457 kts 108°
2026-05-05 07:47 50.99318 3.25950 36936 ft 456 kts 108°
2026-05-05 07:47 50.97942 3.34032 36935 ft 456 kts 108°
2026-05-05 07:48 50.96004 3.45344 36936 ft 457 kts 109°
2026-05-05 07:48 50.94327 3.55076 36934 ft 458 kts 109°
2026-05-05 07:49 50.92911 3.63251 36939 ft 459 kts 109°
2026-05-05 07:49 50.91223 3.72949 36934 ft 460 kts 109°
2026-05-05 07:50 50.89511 3.82728 36936 ft 461 kts 109°
2026-05-05 07:50 50.87787 3.92528 36927 ft 462 kts 109°
2026-05-05 07:51 50.86051 4.02341 36924 ft 463 kts 109°
2026-05-05 07:51 50.84306 4.12147 36915 ft 463 kts 109°
2026-05-05 07:52 50.82551 4.21958 36917 ft 463 kts 109°
2026-05-05 07:52 50.80788 4.31764 36910 ft 463 kts 109°
2026-05-05 07:53 50.79019 4.41548 36911 ft 463 kts 110°
2026-05-05 07:53 50.77242 4.51318 36912 ft 462 kts 110°
2026-05-05 07:54 50.75461 4.61063 36905 ft 462 kts 110°
2026-05-05 07:54 50.73674 4.70789 36910 ft 461 kts 110°
2026-05-05 07:55 50.71881 4.80495 36908 ft 460 kts 110°
2026-05-05 07:55 50.70083 4.90177 36909 ft 460 kts 110°
2026-05-05 07:56 50.68289 4.99787 36900 ft 459 kts 110°
2026-05-05 07:56 50.66480 5.09430 36895 ft 459 kts 111°
2026-05-05 07:57 50.64658 5.19088 36889 ft 459 kts 111°
2026-05-05 07:57 50.62830 5.28733 36885 ft 459 kts 111°
2026-05-05 07:58 50.60993 5.38372 36887 ft 460 kts 111°
2026-05-05 07:58 50.59157 5.47959 36888 ft 461 kts 111°
2026-05-05 07:59 50.57295 5.57630 36877 ft 462 kts 111°
2026-05-05 07:59 50.55425 5.67296 36887 ft 462 kts 111°
2026-05-05 08:00 50.53549 5.76945 36888 ft 461 kts 111°
2026-05-05 08:00 50.51668 5.86573 36883 ft 461 kts 111°
2026-05-05 08:01 50.49780 5.96185 36891 ft 461 kts 111°
2026-05-05 08:01 50.47886 6.05780 36894 ft 461 kts 111°
2026-05-05 08:02 50.45977 6.15403 36888 ft 461 kts 111°
2026-05-05 08:02 50.44059 6.25030 36886 ft 462 kts 111°
2026-05-05 08:03 50.42146 6.34596 36879 ft 462 kts 111°
2026-05-05 08:03 50.40954 6.44578 36892 ft 468 kts 101°
2026-05-05 08:04 50.40241 6.54714 36883 ft 469 kts 100°
2026-05-05 08:04 50.39515 6.64885 36881 ft 469 kts 101°
2026-05-05 08:05 50.38741 6.75045 36881 ft 469 kts 101°
2026-05-05 08:05 50.37938 6.85197 36878 ft 469 kts 101°
2026-05-05 08:06 50.37127 6.95315 36884 ft 469 kts 101°
2026-05-05 08:06 50.36312 7.05402 36897 ft 470 kts 101°
2026-05-05 08:07 50.35480 7.15574 36878 ft 470 kts 101°
2026-05-05 08:07 50.34644 7.25710 36876 ft 470 kts 102°
2026-05-05 08:08 50.33797 7.35872 36875 ft 470 kts 102°
2026-05-05 08:08 50.32941 7.46020 36883 ft 469 kts 102°
2026-05-05 08:09 50.32077 7.56153 36875 ft 469 kts 102°
2026-05-05 08:09 50.31209 7.66228 36889 ft 468 kts 102°
2026-05-05 08:10 50.30332 7.76316 36887 ft 467 kts 102°
2026-05-05 08:10 50.29454 7.86317 36882 ft 466 kts 102°
2026-05-05 08:11 50.28427 7.96321 36878 ft 464 kts 106°
2026-05-05 08:11 50.27050 8.06167 36888 ft 463 kts 108°
2026-05-05 08:12 50.25625 8.15945 36896 ft 462 kts 108°
2026-05-05 08:12 50.24222 8.25756 36891 ft 462 kts 107°
2026-05-05 08:13 50.22844 8.35508 36896 ft 462 kts 107°
2026-05-05 08:13 50.21451 8.45360 36897 ft 463 kts 107°
2026-05-05 08:14 50.20062 8.55111 36888 ft 463 kts 107°
2026-05-05 08:14 50.18655 8.64925 36888 ft 463 kts 108°
2026-05-05 08:15 50.17243 8.74703 36869 ft 463 kts 108°
2026-05-05 08:15 50.15818 8.84504 36888 ft 463 kts 108°
2026-05-05 08:16 50.14385 8.94303 36874 ft 463 kts 108°
2026-05-05 08:16 50.12948 9.04063 36883 ft 463 kts 108°
2026-05-05 08:17 50.11498 9.13850 36879 ft 463 kts 108°
2026-05-05 08:17 50.10040 9.23633 36875 ft 463 kts 108°
2026-05-05 08:18 50.08583 9.33347 36877 ft 463 kts 108°
2026-05-05 08:18 50.07104 9.43152 36884 ft 463 kts 108°
2026-05-05 08:19 50.05630 9.52854 36880 ft 463 kts 108°
2026-05-05 08:19 50.04139 9.62620 36877 ft 463 kts 108°
2026-05-05 08:20 50.02640 9.72372 36878 ft 463 kts 108°
2026-05-05 08:20 50.01137 9.82090 36884 ft 463 kts 108°
2026-05-05 08:21 49.99619 9.91847 36873 ft 464 kts 108°
2026-05-05 08:21 49.98093 10.01600 36886 ft 464 kts 108°
2026-05-05 08:22 49.96566 10.11295 36878 ft 465 kts 108°
2026-05-05 08:22 49.95016 10.21091 36884 ft 465 kts 108°
2026-05-05 08:23 49.93473 10.30785 36881 ft 465 kts 108°
2026-05-05 08:23 49.91829 10.40496 36875 ft 462 kts 114°
2026-05-05 08:24 49.89485 10.49717 36877 ft 460 kts 117°
2026-05-05 08:24 49.87041 10.58904 36871 ft 461 kts 117°
2026-05-05 08:25 49.84619 10.68108 36880 ft 461 kts 116°
2026-05-05 08:25 49.82218 10.77298 36871 ft 462 kts 116°
2026-05-05 08:26 49.79806 10.86522 36865 ft 462 kts 116°
2026-05-05 08:26 49.77386 10.95734 36866 ft 462 kts 116°
2026-05-05 08:27 49.74958 11.04936 36865 ft 462 kts 116°
2026-05-05 08:27 49.72529 11.14102 36852 ft 462 kts 117°
2026-05-05 08:28 49.70083 11.23299 36856 ft 462 kts 117°
2026-05-05 08:28 49.67630 11.32489 36864 ft 462 kts 116°
2026-05-05 08:29 49.65200 11.41656 36857 ft 463 kts 114°
2026-05-05 08:30 49.62200 11.55875 36854 ft 465 kts 111°
2026-05-05 08:30 49.60291 11.65318 36840 ft 465 kts 111°
2026-05-05 08:31 49.58324 11.74821 36838 ft 465 kts 111°
2026-05-05 08:31 49.56335 11.84285 36849 ft 465 kts 111°
2026-05-05 08:32 49.54330 11.93764 36837 ft 465 kts 111°
2026-05-05 08:32 49.52320 12.03222 36837 ft 464 kts 111°
2026-05-05 08:33 49.50307 12.12661 36846 ft 464 kts 111°
2026-05-05 08:33 49.48289 12.22077 36845 ft 464 kts 112°
2026-05-05 08:34 49.46259 12.31510 36842 ft 464 kts 112°
2026-05-05 08:34 49.44237 12.40860 36847 ft 464 kts 112°
2026-05-05 08:35 49.42198 12.50246 36846 ft 463 kts 112°
2026-05-05 08:35 49.40146 12.59653 36850 ft 464 kts 112°
2026-05-05 08:36 49.38090 12.69041 36851 ft 464 kts 112°
2026-05-05 08:36 49.36004 12.78437 36842 ft 464 kts 113°
2026-05-05 08:37 49.34136 12.86141 36853 ft 464 kts 114°
2026-05-05 08:37 49.31834 12.95380 36843 ft 463 kts 114°
2026-05-05 08:38 49.29551 13.04612 36847 ft 463 kts 114°
2026-05-05 08:38 49.27276 13.13839 36844 ft 463 kts 114°
2026-05-05 08:39 49.24996 13.23055 36835 ft 462 kts 114°
2026-05-05 08:39 49.22663 13.32213 36845 ft 462 kts 115°
2026-05-05 08:40 49.20205 13.41288 36849 ft 461 kts 116°
2026-05-05 08:40 49.17750 13.50285 36850 ft 461 kts 115°
2026-05-05 08:41 49.15285 13.59354 36851 ft 462 kts 115°
2026-05-05 08:41 49.14049 13.63904 36600 ft 466 kts 115°
2026-05-05 08:41 49.12804 13.68481 36091 ft 466 kts 115°
2026-05-05 08:41 49.11562 13.73044 35487 ft 464 kts 115°
2026-05-05 08:42 49.10321 13.77591 34848 ft 464 kts 115°
2026-05-05 08:42 49.09079 13.82133 34224 ft 464 kts 115°
2026-05-05 08:42 49.07835 13.86672 33765 ft 460 kts 115°
2026-05-05 08:42 49.06623 13.91089 33230 ft 456 kts 115°
2026-05-05 08:43 49.05397 13.95546 32760 ft 451 kts 115°
2026-05-05 08:43 49.04193 13.99913 32303 ft 447 kts 115°
2026-05-05 08:43 49.02989 14.04274 31847 ft 442 kts 115°
2026-05-05 08:43 49.01800 14.08571 31393 ft 438 kts 114°
2026-05-05 08:44 49.00615 14.12844 30959 ft 434 kts 114°
2026-05-05 08:44 48.99443 14.17065 30517 ft 430 kts 114°
2026-05-05 08:44 48.98281 14.21244 30087 ft 427 kts 114°
2026-05-05 08:44 48.97143 14.25333 29621 ft 423 kts 114°
2026-05-05 08:45 48.95997 14.29437 29145 ft 419 kts 114°
2026-05-05 08:45 48.94841 14.33468 28687 ft 414 kts 118°
2026-05-05 08:45 48.93264 14.37096 28265 ft 407 kts 128°
2026-05-05 08:45 48.91536 14.40477 27795 ft 404 kts 129°
2026-05-05 08:46 48.89794 14.43808 27348 ft 400 kts 130°
2026-05-05 08:46 48.88073 14.47110 26914 ft 397 kts 129°
2026-05-05 08:46 48.86373 14.50406 26481 ft 394 kts 129°
2026-05-05 08:46 48.84699 14.53679 26053 ft 391 kts 129°
2026-05-05 08:47 48.83043 14.56935 25634 ft 388 kts 129°
2026-05-05 08:47 48.81398 14.60174 25214 ft 386 kts 129°
2026-05-05 08:47 48.79759 14.63404 24794 ft 384 kts 129°
2026-05-05 08:47 48.78129 14.66610 24381 ft 382 kts 129°
2026-05-05 08:48 48.76509 14.69794 23958 ft 381 kts 129°
2026-05-05 08:48 48.74912 14.72929 23533 ft 380 kts 129°
2026-05-05 08:48 48.73297 14.76090 23063 ft 379 kts 129°
2026-05-05 08:48 48.71690 14.79233 22599 ft 377 kts 129°
2026-05-05 08:49 48.70091 14.82358 22150 ft 374 kts 129°
2026-05-05 08:49 48.68504 14.85450 21733 ft 371 kts 129°
2026-05-05 08:49 48.66921 14.88532 21324 ft 368 kts 129°
2026-05-05 08:49 48.65353 14.91583 20915 ft 366 kts 129°
2026-05-05 08:50 48.63793 14.94615 20508 ft 364 kts 129°
2026-05-05 08:50 48.62247 14.97618 20111 ft 361 kts 129°
2026-05-05 08:50 48.60704 15.00608 19713 ft 359 kts 129°
2026-05-05 08:50 48.59213 15.03621 19306 ft 358 kts 123°
2026-05-05 08:51 48.58285 15.07094 18937 ft 357 kts 107°
2026-05-05 08:51 48.57663 15.10708 18541 ft 356 kts 105°
2026-05-05 08:51 48.57074 15.14327 18161 ft 354 kts 105°
2026-05-05 08:51 48.56486 15.17932 17722 ft 352 kts 105°
2026-05-05 08:52 48.55888 15.21519 17307 ft 351 kts 106°
2026-05-05 08:52 48.55284 15.25074 16896 ft 348 kts 107°
2026-05-05 08:52 48.54687 15.28546 16516 ft 345 kts 107°
2026-05-05 08:52 48.54081 15.32047 16122 ft 343 kts 107°
2026-05-05 08:53 48.53478 15.35520 15742 ft 340 kts 107°
2026-05-05 08:53 48.52880 15.38955 15368 ft 337 kts 108°
2026-05-05 08:53 48.52284 15.42367 14995 ft 335 kts 108°
2026-05-05 08:53 48.51789 15.45798 14620 ft 334 kts 101°
2026-05-05 08:54 48.51575 15.49276 14271 ft 333 kts 97°
2026-05-05 08:54 48.51441 15.52763 13906 ft 332 kts 97°
2026-05-05 08:54 48.51299 15.56219 13522 ft 330 kts 98°
2026-05-05 08:54 48.51128 15.59679 13110 ft 328 kts 98°
2026-05-05 08:55 48.50941 15.63054 12733 ft 326 kts 99°
2026-05-05 08:55 48.50747 15.66453 12354 ft 323 kts 99°
2026-05-05 08:55 48.50554 15.69796 12090 ft 318 kts 99°
2026-05-05 08:55 48.50361 15.73112 11714 ft 316 kts 99°
2026-05-05 08:56 48.50166 15.76401 11376 ft 315 kts 99°
2026-05-05 08:56 48.49971 15.79689 10994 ft 314 kts 98°
2026-05-05 08:56 48.49777 15.82960 10584 ft 314 kts 98°
2026-05-05 08:56 48.49584 15.86222 10347 ft 309 kts 98°
2026-05-05 08:57 48.49396 15.89398 10228 ft 300 kts 98°
2026-05-05 08:57 48.49211 15.92494 10101 ft 292 kts 98°
2026-05-05 08:57 48.49032 15.95489 10005 ft 283 kts 99°
2026-05-05 08:57 48.48855 15.98420 9759 ft 281 kts 99°
2026-05-05 08:58 48.48675 16.01345 9471 ft 280 kts 99°
2026-05-05 08:58 48.48497 16.04261 9168 ft 279 kts 99°
2026-05-05 08:58 48.48194 16.07085 8865 ft 274 kts 115°
2026-05-05 08:58 48.47154 16.09433 8595 ft 263 kts 141°
2026-05-05 08:59 48.45651 16.10845 8286 ft 255 kts 162°
2026-05-05 08:59 48.43979 16.11579 8000 ft 246 kts 168°
2026-05-05 08:59 48.42336 16.12169 7701 ft 239 kts 169°
2026-05-05 08:59 48.40738 16.12729 7442 ft 232 kts 169°
2026-05-05 09:00 48.39192 16.13276 7262 ft 222 kts 168°
2026-05-05 09:00 48.37743 16.13799 7171 ft 206 kts 168°
2026-05-05 09:00 48.36403 16.14281 7042 ft 190 kts 169°
2026-05-05 09:00 48.35168 16.14729 6937 ft 174 kts 169°
2026-05-05 09:01 48.34031 16.15146 6876 ft 168 kts 169°
2026-05-05 09:01 48.32753 16.15607 7063 ft 204 kts 168°
2026-05-05 09:01 48.31339 16.16126 7033 ft 207 kts 168°
2026-05-05 09:01 48.29971 16.16631 6951 ft 197 kts 169°
2026-05-05 09:02 48.28694 16.17098 6809 ft 180 kts 168°
2026-05-05 09:02 48.27500 16.17536 6542 ft 175 kts 168°
2026-05-05 09:02 48.26316 16.17970 6169 ft 175 kts 168°
2026-05-05 09:02 48.25136 16.18404 5787 ft 175 kts 168°
2026-05-05 09:03 48.23949 16.18863 5453 ft 179 kts 161°
2026-05-05 09:03 48.23049 16.20113 5273 ft 184 kts 116°
2026-05-05 09:03 48.22551 16.21861 4975 ft 180 kts 122°
2026-05-05 09:03 48.21954 16.23526 4624 ft 182 kts 121°
2026-05-05 09:04 48.21387 16.25214 4313 ft 179 kts 121°
2026-05-05 09:04 48.20832 16.26876 4000 ft 178 kts 120°
2026-05-05 09:04 48.20300 16.28540 3820 ft 180 kts 119°
2026-05-05 09:04 48.19768 16.30219 3604 ft 180 kts 119°
2026-05-05 09:05 48.19222 16.31907 3404 ft 178 kts 120°
2026-05-05 09:05 48.18688 16.33560 3219 ft 174 kts 119°
2026-05-05 09:05 48.18162 16.35185 2965 ft 172 kts 120°
2026-05-05 09:05 48.17640 16.36798 2664 ft 173 kts 120°
2026-05-05 09:06 48.17113 16.38431 2406 ft 173 kts 119°
2026-05-05 09:06 48.16596 16.40029 2214 ft 166 kts 120°
2026-05-05 09:06 48.16119 16.41483 2107 ft 146 kts 119°
2026-05-05 09:06 48.15697 16.42801 1952 ft 138 kts 119°
2026-05-05 09:07 48.15234 16.44226 1954 ft 152 kts 120°
2026-05-05 09:07 48.14800 16.45578 1771 ft 137 kts 121°
2026-05-05 09:07 48.14391 16.46840 1502 ft 136 kts 118°
2026-05-05 09:07 48.13981 16.48125 1309 ft 136 kts 119°
2026-05-05 09:08 48.13572 16.49375 1121 ft 130 kts 118°
2026-05-05 09:08 48.13172 16.50601 983 ft 133 kts 117°
2026-05-05 09:08 48.12767 16.51863 835 ft 135 kts 118°
2026-05-05 09:08 48.12362 16.53087 672 ft 129 kts 118°
2026-05-05 09:09 48.12034 16.54085 623 ft 114 kts 112°
2026-05-05 09:09 48.11755 16.54952 619 ft 71 kts 115°
2026-05-05 09:09 48.11575 16.55506 618 ft 52 kts 116°
2026-05-05 09:09 48.11500 16.55882 616 ft 32 kts 92°
2026-05-05 09:10 48.11511 16.56090 609 ft 8 kts 77°
2026-05-05 09:10 48.11527 16.56125 615 ft 3 kts 39°
2026-05-05 09:10 48.11531 16.56129 616 ft 0 kts 31°
2026-05-05 09:11 48.11537 16.56134 617 ft 3 kts 29°
2026-05-05 09:11 48.11576 16.56129 620 ft 9 kts 324°
2026-05-05 09:11 48.11619 16.56017 616 ft 16 kts 296°
2026-05-05 09:11 48.11677 16.55841 622 ft 21 kts 296°
2026-05-05 09:12 48.11743 16.55635 615 ft 22 kts 295°
2026-05-05 09:12 48.11803 16.55445 615 ft 13 kts 296°
2026-05-05 09:12 48.11828 16.55405 612 ft 1 kts 16°
2026-05-05 09:12 48.11882 16.55434 609 ft 12 kts 11°
2026-05-05 09:13 48.11924 16.55495 609 ft 9 kts 66°
2026-05-05 09:13 48.11945 16.55561 615 ft 5 kts 64°
2026-05-05 09:13 48.11953 16.55587 618 ft 0 kts 64°